Location: Chilton Park
(37.7711°N, 100.0276°W)
Time: 03:08:32
(UTC+00:00)

Cosmos 2227 Rocket - Pass Details

Date: 04 July 2022
Orbit: 840 x 844 km, 71.0° (Epoch: 13 August)

Event Time Altitude Azimuth Distance (km) Brightness Sun altitude
Exits shadow 08:28:16 31° 137° (SE) 1,435 3.2 -24.6°
Maximum altitude 08:29:48 37° 104° (ESE) 1,292 3.2 -24.5°
Drops below altitude 10° 08:34:56 10° 39° (NE) 2,468 5.7 -24.0°
Sets 08:37:33 0° 32° (NNE) 3,407 6.8 -23.8°
